Location: Newark
(14.6561°N, 91.2669°W)
Time: 06:07:13
(UTC+00:00)

LightSail 2 - Visible Passes

Search period start: 22 September 2019 00:00
Search period end: 02 October 2019 00:00
Orbit: 701 x 730 km, 24.0° (Epoch: 21 September)

Date Brightness Start Highest point End Pass type
(mag) Time Alt. Az. Time Alt. Az. Time Alt. Az.
22 Sep 5.9 10:24:20 36° NNW 10:25:07 38° NNW 10:29:51 10° ENE visible
23 Sep 7.2 09:30:41 22° NE 09:30:41 22° NE 09:32:39 10° ENE visible
23 Sep 6.5 11:09:42 11° WNW 11:13:49 28° N 11:18:11 10° NE visible
24 Sep 6.2 10:16:01 30° NNW 10:16:24 30° N 10:20:52 10° NE visible
25 Sep 7.6 09:22:19 17° NE 09:22:19 17° NE 09:23:36 10° NE visible
25 Sep 6.5 11:01:21 12° NW 11:05:08 28° N 11:09:28 10° ENE visible
26 Sep 6.5 10:07:38 28° N 10:07:41 28° N 10:12:00 10° ENE visible
27 Sep 7.9 09:13:56 13° NE 09:13:56 13° NE 09:14:37 10° NE visible
27 Sep 6.4 10:52:57 15° NW 10:56:23 31° N 11:00:52 10° ENE visible
28 Sep 6.5 09:59:16 28° N 09:59:16 28° N 10:03:18 10° ENE visible
29 Sep 8.1 09:05:35 11° ENE 09:05:35 11° ENE 09:05:46 10° ENE visible
29 Sep 6.1 10:44:37 20° NW 10:47:33 38° NNE 10:52:17 10° E visible
30 Sep 6.5 09:50:57 31° NNE 09:50:57 31° NNE 09:54:41 10° ENE visible
30 Sep 5.3 11:30:53 10° WNW 11:35:58 71° NNE 11:41:01 10° ESE visible
01 Oct 7.6 01:46:30 10° S 01:46:40 10° S 01:46:40 10° S visible
01 Oct 5.5 10:36:21 31° NW 10:38:35 55° NNE 10:43:33 10° E visible
